KD8ZLZ Weather Reports


time (UTC)temp
C
wind
direction
speed
KPH
gust
KPH
rain 1hr
cm
rain 24hr
cm
rain mn
cm
humidity
%
barometer
mb
20260503211032 17 236 17.7 37.0 0.00 0.00 0.00 37 1011.0
20260503210552 17 223 17.7 30.6 0.00 0.00 0.00 37 1011.0
20260503210032 17 221 12.9 25.7 0.00 0.00 0.00 39 1011.0
20260503205532 17 209 22.5 38.6 0.00 0.00 0.00 38 1011.0
20260503205032 17 212 16.1 27.4 0.00 0.00 0.00 38 1011.0
20260503204532 18 220 14.5 25.7 0.00 0.00 0.00 37 1011.0
20260503204032 17 226 14.5 29.0 0.00 0.00 0.00 38 1011.0
20260503203532 17 234 17.7 33.8 0.00 0.00 0.00 38 1011.0
20260503203033 17 215 19.3 35.4 0.00 0.00 0.00 38 1011.0
20260503202532 17 228 17.7 30.6 0.00 0.00 0.00 38 1011.0
20260503202112 17 227 17.7 32.2 0.00 0.00 0.00 38 1011.3
20260503201532 18 219 19.3 32.2 0.00 0.00 0.00 37 1011.4
20260503201032 18 221 14.5 27.4 0.00 0.00 0.00 37 1011.4
20260503200612 17 221 17.7 30.6 0.00 0.00 0.00 38 1011.4
20260503200113 17 222 19.3 35.4 0.00 0.00 0.00 37 1011.4
20260503195532 17 223 17.7 37.0 0.00 0.00 0.00 36 1011.4
20260503195032 17 215 17.7 33.8 0.00 0.00 0.00 38 1011.4
20260503194532 17 223 20.9 33.8 0.00 0.00 0.00 37 1011.4
20260503194032 17 223 14.5 27.4 0.00 0.00 0.00 37 1011.7
20260503193532 18 232 17.7 30.6 0.00 0.00 0.00 36 1011.7
20260503193053 18 228 16.1 33.8 0.00 0.00 0.00 36 1011.7
20260503192532 17 227 17.7 32.2 0.00 0.00 0.00 36 1011.7
20260503192033 17 230 17.7 35.4 0.00 0.00 0.00 36 1012.0
20260503191553 17 223 17.7 27.4 0.00 0.00 0.00 35 1012.0
20260503191032 18 217 17.7 37.0 0.00 0.00 0.00 36 1012.1
20260503190532 17 217 19.3 32.2 0.00 0.00 0.00 35 1012.0
20260503190032 17 234 16.1 25.7 0.00 0.00 0.00 36 1012.0
20260503185532 17 217 19.3 32.2 0.00 0.00 0.00 35 1012.0
20260503185032 17 224 19.3 35.4 0.00 0.00 0.00 36 1012.4
20260503184532 17 239 19.3 40.2 0.00 0.00 0.00 36 1012.4
20260503184032 17 206 17.7 33.8 0.00 0.00 0.00 36 1012.4
20260503183532 17 238 16.1 29.0 0.00 0.00 0.00 37 1012.4
20260503183052 17 215 20.9 32.2 0.00 0.00 0.00 37 1012.4
20260503182533 17 225 17.7 37.0 0.00 0.00 0.00 36 1012.4
20260503182032 17 229 20.9 37.0 0.00 0.00 0.00 37 1012.7
20260503181533 17 244 16.1 30.6 0.00 0.00 0.00 36 1013.0
20260503181032 17 224 20.9 32.2 0.00 0.00 0.00 35 1013.0
20260503180553 17 227 19.3 38.6 0.00 0.00 0.00 36 1013.0
20260503180032 17 230 19.3 33.8 0.00 0.00 0.00 36 1013.0
20260503175532 16 221 17.7 33.8 0.00 0.00 0.00 38 1013.0
20260503175032 16 221 14.5 25.7 0.00 0.00 0.00 39 1013.0
20260503174532 16 214 14.5 27.4 0.00 0.00 0.00 39 1013.3
20260503174032 16 215 17.7 29.0 0.00 0.00 0.00 38 1013.3
20260503173532 16 220 17.7 29.0 0.00 0.00 0.00 38 1013.4
20260503173032 17 220 14.5 27.4 0.00 0.00 0.00 38 1013.7
20260503172532 16 225 14.5 24.1 0.00 0.00 0.00 39 1013.7
20260503172032 16 225 16.1 32.2 0.00 0.00 0.00 39 1013.7
20260503171533 16 215 14.5 27.4 0.00 0.00 0.00 40 1014.0
20260503171032 16 230 12.9 27.4 0.00 0.00 0.00 40 1014.0
20260503170532 15 224 14.5 25.7 0.00 0.00 0.00 41 1014.0
20260503170132 15 229 14.5 25.7 0.00 0.00 0.00 42 1013.9
20260503150532 15 253 9.7 16.1 0.00 0.00 0.00 42 1014.3
20260503131032 8 224 9.7 17.7 0.00 0.00 0.00 56 1014.9
20260503130552 8 211 9.7 19.3 0.00 0.00 0.00 57 1014.9
20260503110532 2 211 4.8 9.7 0.00 0.00 0.00 68 1014.7
20260503081532 1 202 3.2 6.4 0.00 0.00 0.00 79 1015.6
20260503081032 1 199 3.2 6.4 0.00 0.00 0.00 80 1015.6
20260503080532 1 199 1.6 4.8 0.00 0.00 0.00 81 1015.6
20260503072532 1 195 3.2 4.8 0.00 0.00 0.00 73 1015.6
20260503072052 1 193 1.6 3.2 0.00 0.00 0.00 74 1015.6
20260503071531 1 197 1.6 3.2 0.00 0.00 0.00 74 1016.0
20260503071031 2 191 3.2 4.8 0.00 0.00 0.00 72 1016.0
20260503070531 2 192 3.2 4.8 0.00 0.00 0.00 72 1016.0
20260503055032 1 202 1.6 3.2 0.00 0.00 0.00 83 1016.3
20260503054532 1 191 1.6 3.2 0.00 0.00 0.00 80 1016.3
20260503054031 1 204 1.6 4.8 0.00 0.00 0.00 83 1016.3
20260503053552 1 193 1.6 3.2 0.00 0.00 0.00 85 1016.3
20260503053032 2 191 1.6 3.2 0.00 0.00 0.00 81 1016.3
20260503052532 2 192 1.6 3.2 0.00 0.00 0.00 82 1016.3
20260503052032 2 196 1.6 3.2 0.00 0.00 0.00 78 1016.3
20260503051531 2 190 1.6 3.2 0.00 0.00 0.00 79 1016.3
20260503051031 2 197 1.6 3.2 0.00 0.00 0.00 80 1016.3
20260503050532 2 200 1.6 4.8 0.00 0.00 0.00 81 1016.3
20260503050031 2 200 1.6 3.2 0.00 0.00 0.00 80 1016.3
20260503045531 2 204 1.6 3.2 0.00 0.00 0.00 84 1016.3
20260503045031 2 195 1.6 3.2 0.00 0.00 0.00 86 1016.3
20260503044531 1 197 1.6 3.2 0.00 0.00 0.00 86 1016.3
20260503044031 1 197 1.6 3.2 0.00 0.00 0.00 86 1016.3
20260503043533 1 192 1.6 3.2 0.00 0.00 0.00 88 1016.3
20260503043031 1 188 1.6 1.6 0.00 0.00 0.00 87 1016.6
20260503042531 1 185 1.6 1.6 0.00 0.00 0.00 83 1016.6
20260503042031 1 177 0.0 1.6 0.00 0.00 0.00 82 1016.6
20260503041532 2 167 0.0 1.6 0.00 0.00 0.00 80 1016.6
20260503041032 2 178 0.0 3.2 0.00 0.00 0.00 82 1016.6
20260503040531 2 185 1.6 1.6 0.00 0.00 0.00 84 1016.6
20260503040031 2 191 1.6 1.6 0.00 0.00 0.00 85 1016.6
20260503035531 2 182 1.6 1.6 0.00 0.00 0.00 84 1016.6
20260503035032 2 185 1.6 3.2 0.00 0.00 0.00 86 1016.6
20260503034531 2 190 1.6 1.6 0.00 0.00 0.00 85 1016.6
20260503034051 2 191 1.6 1.6 0.00 0.00 0.00 86 1016.6
20260503033551 2 187 1.6 1.6 0.00 0.00 0.00 85 1016.6
20260503033052 2 180 1.6 1.6 0.00 0.00 0.00 80 1016.6
20260503032532 2 172 1.6 1.6 0.00 0.00 0.00 80 1016.6
20260503032031 2 185 1.6 3.2 0.00 0.00 0.00 82 1016.9
20260503031531 2 197 1.6 3.2 0.00 0.00 0.00 84 1016.9
20260503031113 2 165 0.0 1.6 0.00 0.00 0.00 81 1016.9
20260503030552 2 187 1.6 1.6 0.00 0.00 0.00 81 1016.9
20260503030032 2 179 0.0 1.6 0.00 0.00 0.00 83 1016.9
20260503025551 2 147 1.6 1.6 0.00 0.00 0.00 81 1016.9
20260503025031 2 150 0.0 1.6 0.00 0.00 0.00 80 1016.9
20260503024552 2 179 0.0 1.6 0.00 0.00 0.00 81 1016.9
20260503024031 2 165 0.0 0.0 0.00 0.00 0.00 80 1016.9
20260503023531 2 182 1.6 3.2 0.00 0.00 0.00 80 1017.0
20260503023031 2 176 0.0 1.6 0.00 0.00 0.00 80 1017.0
20260503022531 2 156 0.0 0.0 0.00 0.00 0.00 77 1017.0
20260503022031 3 161 0.0 0.0 0.00 0.00 0.00 79 1016.7
20260503021533 3 173 0.0 1.6 0.00 0.00 0.00 77 1016.7
20260503021051 3 172 0.0 1.6 0.00 0.00 0.00 79 1016.7
20260503020531 3 169 0.0 0.0 0.00 0.00 0.00 79 1016.6
20260503020031 3 160 0.0 0.0 0.00 0.00 0.00 76 1016.6
20260503015551 3 158 0.0 0.0 0.00 0.00 0.00 74 1016.6
20260503015051 3 158 0.0 0.0 0.00 0.00 0.00 72 1016.7
20260503014531 4 172 0.0 0.0 0.00 0.00 0.00 72 1016.7
20260503014052 4 163 0.0 0.0 0.00 0.00 0.00 70 1016.7
20260503013531 5 166 0.0 0.0 0.00 0.00 0.00 67 1016.7
20260503013052 5 166 0.0 0.0 0.00 0.00 0.00 68 1016.7
20260503012532 5 173 0.0 0.0 0.00 0.00 0.00 66 1016.7
20260503012031 6 177 0.0 1.6 0.00 0.00 0.00 63 1016.7
20260503011533 6 177 0.0 1.6 0.00 0.00 0.00 57 1016.7
20260503011031 6 180 1.6 1.6 0.00 0.00 0.00 51 1016.8
20260503010531 6 182 1.6 1.6 0.00 0.00 0.00 50 1016.7
20260503010031 7 182 1.6 3.2 0.00 0.00 0.00 49 1016.7
20260503005532 7 196 3.2 3.2 0.00 0.00 0.00 49 1016.7
20260503005032 7 191 1.6 3.2 0.00 0.00 0.00 52 1016.7
20260503004531 7 177 0.0 3.2 0.00 0.00 0.00 54 1016.7
20260503004031 7 181 1.6 1.6 0.00 0.00 0.00 51 1016.8
20260503003551 8 192 1.6 3.2 0.00 0.00 0.00 48 1016.4
20260503003031 8 196 1.6 3.2 0.00 0.00 0.00 46 1016.4
20260503002531 8 199 1.6 3.2 0.00 0.00 0.00 45 1016.8
20260503002031 8 198 1.6 3.2 0.00 0.00 0.00 45 1016.7
20260503001531 8 210 1.6 4.8 0.00 0.00 0.00 44 1016.8
20260503001031 8 223 1.6 3.2 0.00 0.00 0.00 43 1016.8
20260503000532 8 246 1.6 3.2 0.00 0.00 0.00 44 1016.7
20260503000031 8 241 1.6 3.2 0.00 0.00 0.00 43 1016.6
20260502235531 8 248 3.2 6.4 0.00 0.00 0.00 42 1016.7
20260502235031 8 293 4.8 6.4 0.00 0.00 0.00 41 1016.6
20260502234531 8 260 4.8 8.0 0.00 0.00 0.00 42 1016.7
20260502234031 8 286 4.8 6.4 0.00 0.00 0.00 42 1016.7
20260502233531 8 303 6.4 9.7 0.00 0.00 0.00 41 1016.6
20260502233031 8 254 3.2 6.4 0.00 0.00 0.00 42 1016.7
20260502232531 8 298 6.4 11.3 0.00 0.00 0.00 41 1016.6
20260502232031 8 287 4.8 8.0 0.00 0.00 0.00 41 1016.7
20260502231531 8 302 4.8 8.0 0.00 0.00 0.00 41 1016.6
20260502231031 8 302 6.4 11.3 0.00 0.00 0.00 42 1016.7
20260502230531 8 273 6.4 11.3 0.00 0.00 0.00 42 1016.7
20260502230031 8 287 6.4 16.1 0.00 0.00 0.00 42 1016.7
20260502225531 8 243 6.4 16.1 0.00 0.00 0.00 41 1016.6
20260502225031 8 254 6.4 9.7 0.00 0.00 0.00 41 1016.6
20260502224612 8 277 4.8 9.7 0.00 0.00 0.00 41 1016.6
20260502224051 8 284 6.4 12.9 0.00 0.00 0.00 41 1016.7
20260502223551 9 264 8.0 12.9 0.00 0.00 0.00 40 1016.7
20260502223051 8 234 6.4 11.3 0.00 0.00 0.00 41 1016.7
20260502222551 8 287 4.8 8.0 0.00 0.00 0.00 40 1016.7
20260502222031 8 280 4.8 8.0 0.00 0.00 0.00 41 1016.7
20260502221531 8 280 4.8 9.7 0.00 0.00 0.00 40 1016.7
20260502221031 8 292 8.0 11.3 0.00 0.00 0.00 39 1016.7
20260502220551 8 284 8.0 14.5 0.00 0.00 0.00 39 1016.7
20260502220052 9 275 6.4 16.1 0.00 0.00 0.00 40 1016.7
20260502215531 9 276 6.4 11.3 0.00 0.00 0.00 38 1016.7
20260502215051 9 292 4.8 9.7 0.00 0.00 0.00 39 1016.7
20260502214611 9 306 6.4 9.7 0.00 0.00 0.00 39 1016.7
20260502214051 8 317 6.4 11.3 0.00 0.00 0.00 38 1016.7
20260502213531 9 301 6.4 12.9 0.00 0.00 0.00 40 1016.7
20260502213031 9 298 6.4 14.5 0.00 0.00 0.00 39 1016.7
20260502212531 9 291 8.0 12.9 0.00 0.00 0.00 39 1017.0
20260502212031 9 282 9.7 16.1 0.00 0.00 0.00 39 1017.0
20260502211531 9 288 9.7 16.1 0.00 0.00 0.00 39 1017.0